Regional Weather Roundup
Issued by NWS Binghamton, NY

Home | Current Version | Previous Version | Text Only | Print | Product List | Glossary On
Versions: 1 2 3 4 5 6 7 8 9 10 11 12 13 14 15 16 17 18 19 20 21 22 23 24 25 26 27 28 29 30 31 32 33 34 35 36 37 38 39 40 41 42 43 44 45 46 47 48 49 50
000
ASUS41 KBGM 310010
RWRBGM
RWRBGM
BINGHAMTON REGIONAL WEATHER ROUNDUP
NATIONAL WEATHER SERVICE BINGHAMTON NY
800 PM EDT MON MAR 30 2015

Note: "fair" indicates few or no clouds below 12,000 feet with no
significant weather and/or obstructions to visibility.

* = Station(s) that does not report precipitation, such as rain,
snow, etc, also no thunder or fog.

!NYZ009-015>018-022>025-036-037-044>046-055>057-062-310100
...CENTRAL NEW YORK...

CITY           SKY/WX    TMP DP  RH WIND       PRES   REMARKS
BINGHAMTON     LGT SNOW  32  30  92 W14G26    29.77S FOG     WCI  22
CORTLAND       CLOUDY    34  34 100 W7        29.81R WCI  28
DANSVILLE      CLOUDY    38  32  79 NW3       29.85R
ELMIRA         CLOUDY    39  33  79 W15       29.83R WCI  31
ITHACA         MOCLDY    34  31  89 W8        29.82R WCI  27
MONTICELLO     MOCLDY    37  27  65 W10       29.78R WCI  30
NORWICH        LGT RAIN  36  30  80 W5        29.79S WCI  32
ONEONTA        FLURRIES  32  30  93 W9G16     29.74S WCI  24
PENN YAN       CLOUDY    36  30  79 W14       29.81R WCI  27
ROME           MOCLDY    38  29  70 W9        29.77R WCI  31
SIDNEY         LGT RAIN  34  34 100 W5        29.80S WCI  30
SYRACUSE       MOCLDY    38  32  79 W13       29.79R WCI  30
$$

!PAZ038>040-043-044-047-048-072-310100
...NORTHEAST PENNSYLVANIA...

CITY           SKY/WX    TMP DP  RH WIND       PRES   REMARKS
HAZLETON       CLOUDY    45  21  39 W14G25    29.83R
SCRANTON       CLOUDY    42  30  62 NW15G23   29.83R
TOWANDA*       PTCLDY    39  34  81 MISG      29.86R
$$
&&
KEY
WCI = WIND CHILL INDEX
VSB = VISIBILITY
HX  = HEAT INDEX
$$


USA.gov is the U.S. government's official web portal to all federal, state and local government web resources and services.